Accueil
METAR-TAF:

METAR-TAF

Aéroports :

Base aérienne

Landivisiau, France

latitude: 48-31N, longitude: 004-09W, altitude: 106 m

Observation

Le bulletin a été fait il y a 24 minutes, à 02:00 UTC
Vent 6 kt de sud-ouest
Température 13°C
Humidité 100%
Pression 1024 hPa
Visibilité: 7000 m
Nuages fragmentés à une hauteur de 1200 ft
Nuages fragmentés à une hauteur de 10000 ft
Nuages fragmentés à une hauteur de 13000 ft

METAR: LFRJ 190200Z AUTO 22006KT 7000 BKN012 BKN100 BKN130 13/13 Q1024

Heure: 04:24 (02:24 UTC)


TAF: absent

Observations et prévisions météorologiques de plus de 4000 aéroports (messages METAR et TAF).

Les stations disponibles sont représentées par des disques jaunes et rouges sur la carte.

Passer la souris dessus pour voir le nom de la station.

Cliquer dessus pour voir les observations et prévisions météorologiques.

Pour changer de carte: cliquez sur les boutons verts avec une croix noire pour zoomer, sur le bouton vert avec un tiret pour effectuer un zoom arrière, ou sur les flèches vertes pour les cartes adjacentes.


METAR-TAF: